Погода в Жалпактале

Казахстан     49°40′00″N   49°28′27″E
темп.,
°C
ветер,
м/с
пор.,
м/с
влажн.,
%
обл.,
%
осадки,
мм/ч
давл.,
гПа
погр.,
м
25 февраля, чт
чт2523:00−22сз612900 0.0 1036275
02:00−23сз46920 0.0 1037115
05:00−23сз359121 0.0 103897
08:00−23зсз238964 0.0 103856
11:00−19зюз238282 0.0 1038208
14:00−15ююз4575100 0.0 1037407
17:00−13ююз6977100 0.0 1034544
20:00−13ююз61194100 0.5 1030576
26 февраля, пт
пт2623:00−11ююз81494100 1.7 1027662
02:00−11ююз81494100 1.6 1024680
05:00−9ююз71394100 2.8 1021611
08:00−8ююз51094100 0.6 1018376
11:00−7ююз479498 0.8 1018300
14:00−3ююз3493100 0.1 1017317
17:00−2ю2396100 0.1 1016179
20:00−1ю3598100 0.1 1015100
27 февраля, сб
сб2723:00+1ююз5997100 0.2 1013276
02:00+1юз61198100 0.8 1010305
05:00+2зюз81598100 1.9 1008467
08:00+2зюз81598100 0.1 1007443
11:00+2з712100100 0.2 1008440
14:00+2зюз611100100 0.0 1007435
17:00+2зюз61299100 0.0 1007478
20:000з6138896 0.0 1006505
28 февраля, вс
вс2823:000зюз6138998 0.1 1006458
02:000з71289100 0.0 1006430
05:00−1з61296100 0.1 1007417
08:00−3сз489396 0.1 1008369
11:00−5сз468488 0.1 1009394
14:00−4сз45820 0.0 1011401
17:00−4сз34846 0.0 1012334
20:00−6ссз249483 0.1 1013157
1 марта, пн
пн123:00−7с359292 0.1 1015225
02:00−9с339258 0.0 101691
05:00−11с349029 0.0 101895
08:00−11с23910 0.0 102092
11:00−11с348821 0.0 1022260
14:00−9с448274 0.0 1024411
17:00−10ссз468364 0.0 1025504
20:00−12ссз37900 0.0 1027322